COSMOS 252 DEB, 3559

Orbit data source: Space-Track

COSMOS 252 DEB, 3559 is space debris in LEO originally from a launch on Fri, 01 Nov 1968 UTC launched from the Tyuratam Missile And Space Complex (TTMTR). Debris objects in space refer to the collection of defunct objects orbiting the Earth. Examples of debris include non-operational satellites, rocket bodies, and fragments generated from explosions, collisions, or faulty payload assembly.

Loading next visibility...
Identifier
3559, 1968-097M
Orbit
LEO
Country
Flag of CISCIS
Related business
Manufacturer
Unknown
Mission
Spacecraft
Bus & Motor
Unknown
Mass
Unknown
Launch date (UTC)
1968-11-01 (57 years ago)
Launch vehicle
Unknown
Launch site
Tyuratam Missile And Space Complex (TTMTR)
Object type
Payload
Rocket body
Debris
Shape & HBR
Unknown shape, 0.2 m
Radar Cross Section
Small (<0.1 m²)

Expand to show TLE details & history
Last TLE update: 5 hours ago

TLE from 5 hours ago
0 COSMOS 252 DEB
1 03559U 68097M   25308.28792276  .00002771  00000-0  55869-3 0  9996
2 03559  62.2906 313.0905 0464350 198.2470 160.1432 14.12549939812097
Epoch: 2025-11-04T06:54Z
TLE epoch observation values (Epoch: 2025-11-04T06:54:36.526Z)
Latitude
0.00001°
Longitude
165.66121°
Altitude
1,169.806 km
Speed
7.108 km/s
True Right ascension
20h 52m 21s
True Declination
0° 00' 00"
Sunlit
Object was in daylight at epoch
Visualization orbit readout
Latitude
Unknown
Longitude
Unknown
Altitude
Unknown
Speed
Unknown
Apparent Right ascension
Unknown
Apparent Declination
Unknown
Sunlit
N/A
Visualization observer readout
Local Sidereal Time
08:04:24
Azimuth
Unknown
Elevation
Unknown
Doppler factor
Unknown
Orbital elements
Apogee altitude
1,185.209 km
Perigee altitude
513.97 km
Semi-major axis
7,227.727 km
Eccentricity
0.04644
Inclination
62.2906°
RAAN
313.0905°
Arg. of periapsis
198.247°
True anomaly
161.85661°
Mean anomaly
160.1432°
Eccentric anomaly
161.00899°
Mean motion
3.53216 °/min
Orbital period
101.92 mins
BSTAR
0.00055869
Loading maneuver chart data...
Computing Atmospheric mass density...

Documentation

Showing up to 5 results
|